| time (UTC) | temp F | wind direction | speed knots | gust knots | rain 1hr in | rain 24hr in | rain mn in | humidity % | barometer mb |
| 20260502234507 | 64 | 360 | 5.2 | 8.7 | 0.00 | 0.00 | 0.00 | 33 | 1014.1 |
| 20260502233004 | 64 | 360 | 9.6 | 13.0 | 0.00 | 0.00 | 0.00 | 36 | 1014.3 |
| 20260502231502 | 64 | 48 | 2.6 | 11.3 | 0.00 | 0.00 | 0.00 | 35 | 1014.6 |
| 20260502230101 | 64 | 360 | 10.4 | 13.9 | 0.00 | 0.00 | 0.00 | 36 | 1014.8 |
| 20260502224557 | 63 | 82 | 7.0 | 13.9 | 0.00 | 0.00 | 0.00 | 37 | 1014.7 |
| 20260502223057 | 63 | 89 | 5.2 | 11.3 | 0.00 | 0.00 | 0.00 | 36 | 1014.9 |
| 20260502221612 | 64 | 360 | 9.6 | 12.2 | 0.00 | 0.00 | 0.00 | 37 | 1015.3 |
| 20260502214552 | 66 | 360 | 3.5 | 8.7 | 0.00 | 0.00 | 0.00 | 33 | 1015.7 |
| 20260502213051 | 66 | 67 | 1.7 | 9.6 | 0.00 | 0.00 | 0.00 | 34 | 1016.0 |
| 20260502211550 | 65 | 202 | 2.6 | 7.8 | 0.00 | 0.00 | 0.00 | 35 | 1016.2 |
| 20260502210104 | 65 | 360 | 3.5 | 8.7 | 0.00 | 0.00 | 0.00 | 36 | 1016.3 |
| 20260502204548 | 63 | 360 | 4.3 | 12.2 | 0.00 | 0.00 | 0.00 | 35 | 1016.4 |
| 20260502203046 | 63 | 360 | 6.1 | 11.3 | 0.00 | 0.00 | 0.00 | 35 | 1016.4 |
| 20260502201549 | 65 | 360 | 1.7 | 11.3 | 0.00 | 0.00 | 0.00 | 35 | 1016.5 |
| 20260502200057 | 64 | 360 | 1.7 | 10.4 | 0.00 | 0.00 | 0.00 | 36 | 1016.6 |
| 20260502194541 | 64 | 360 | 3.5 | 7.8 | 0.00 | 0.00 | 0.00 | 36 | 1016.7 |
| 20260502193041 | 63 | 360 | 5.2 | 9.6 | 0.00 | 0.00 | 0.00 | 38 | 1016.8 |
| 20260502191536 | 62 | 324 | 1.7 | 10.4 | 0.00 | 0.00 | 0.00 | 40 | 1016.9 |
| 20260502190042 | 61 | 360 | 2.6 | 8.7 | 0.00 | 0.00 | 0.00 | 41 | 1017.1 |
| 20260502184559 | 59 | 360 | 1.7 | 9.6 | 0.00 | 0.00 | 0.00 | 44 | 1017.1 |
| 20260502183056 | 58 | 360 | 1.7 | 9.6 | 0.00 | 0.00 | 0.00 | 43 | 1017.4 |
| 20260502181552 | 58 | 313 | 5.2 | 9.6 | 0.00 | 0.00 | 0.00 | 42 | 1017.5 |
| 20260502163046 | 53 | 360 | 7.8 | 13.0 | 0.00 | 0.00 | 0.00 | 55 | 1018.0 |
| 20260502161534 | 53 | 360 | 7.0 | 13.9 | 0.00 | 0.00 | 0.00 | 55 | 1018.0 |
| 20260502151554 | 50 | 360 | 8.7 | 14.8 | 0.00 | 0.00 | 0.00 | 59 | 1018.0 |
| 20260502123010 | 43 | 360 | 0.9 | 5.2 | 0.00 | 0.00 | 0.00 | 62 | 1017.6 |
| 20260502121507 | 43 | 360 | 1.7 | 3.5 | 0.00 | 0.00 | 0.00 | 59 | 1017.1 |
| 20260502114600 | 44 | 360 | 4.3 | 9.6 | 0.00 | 0.00 | 0.00 | 57 | 1016.4 |
| 20260502113056 | 46 | 360 | 4.3 | 10.4 | 0.00 | 0.00 | 0.00 | 52 | 1016.1 |
| 20260502111552 | 47 | 48 | 4.3 | 11.3 | 0.00 | 0.00 | 0.00 | 49 | 1016.1 |
| 20260502110056 | 50 | 46 | 4.3 | 9.6 | 0.00 | 0.00 | 0.00 | 45 | 1016.0 |
| 20260502104545 | 51 | 360 | 4.3 | 6.1 | 0.00 | 0.00 | 0.00 | 41 | 1015.3 |
| 20260502103045 | 51 | 151 | 2.6 | 5.2 | 0.00 | 0.00 | 0.00 | 42 | 1015.3 |
| 20260502101556 | 50 | 151 | 3.5 | 6.1 | 0.00 | 0.00 | 0.00 | 42 | 1015.2 |
| 20260502071512 | 54 | 360 | 2.6 | 3.5 | 0.00 | 0.00 | 0.00 | 37 | 1015.2 |
| 20260502070019 | 54 | 360 | 2.6 | 5.2 | 0.00 | 0.00 | 0.00 | 36 | 1015.1 |
| 20260502064506 | 54 | 360 | 2.6 | 4.3 | 0.00 | 0.00 | 0.00 | 36 | 1015.2 |
| 20260502063008 | 55 | 360 | 3.5 | 4.3 | 0.00 | 0.00 | 0.00 | 36 | 1015.1 |
| 20260502061504 | 56 | 360 | 2.6 | 4.3 | 0.00 | 0.00 | 0.00 | 35 | 1014.9 |
| 20260502060002 | 56 | 360 | 1.7 | 4.3 | 0.00 | 0.00 | 0.00 | 33 | 1015.0 |
| 20260502054501 | 56 | 360 | 0.9 | 2.6 | 0.00 | 0.00 | 0.00 | 35 | 1014.9 |
| 20260502053100 | 56 | 155 | 0.9 | 2.6 | 0.00 | 0.00 | 0.00 | 34 | 1014.8 |
| 20260502051601 | 57 | 360 | 0.9 | 2.6 | 0.00 | 0.00 | 0.00 | 34 | 1015.0 |
| 20260502050037 | 57 | 155 | 4.3 | 5.2 | 0.00 | 0.00 | 0.00 | 32 | 1014.9 |
| 20260502044530 | 57 | 155 | 1.7 | 4.3 | 0.00 | 0.00 | 0.00 | 32 | 1015.1 |
| 20260502043026 | 58 | 155 | 3.5 | 7.0 | 0.00 | 0.00 | 0.00 | 34 | 1015.0 |
| 20260502041528 | 59 | 360 | 3.5 | 7.0 | 0.00 | 0.00 | 0.00 | 32 | 1014.8 |
| 20260502040026 | 60 | 360 | 2.6 | 4.3 | 0.00 | 0.00 | 0.00 | 32 | 1014.9 |
| 20260502034525 | 61 | 360 | 1.7 | 3.5 | 0.00 | 0.00 | 0.00 | 31 | 1014.8 |
| 20260502033022 | 62 | 360 | 2.6 | 4.3 | 0.00 | 0.00 | 0.00 | 30 | 1014.7 |
| 20260502031522 | 63 | 360 | 2.6 | 4.3 | 0.00 | 0.00 | 0.00 | 29 | 1014.6 |
| 20260502030021 | 64 | 360 | 1.7 | 5.2 | 0.00 | 0.00 | 0.00 | 27 | 1014.4 |
| 20260502024520 | 65 | 151 | 0.9 | 2.6 | 0.00 | 0.00 | 0.00 | 26 | 1014.3 |
| 20260502023017 | 66 | 360 | 0.0 | 1.7 | 0.00 | 0.00 | 0.00 | 25 | 1014.2 |
| 20260502021516 | 67 | 360 | 0.9 | 4.3 | 0.00 | 0.00 | 0.00 | 26 | 1014.2 |
| 20260502020015 | 68 | 150 | 0.9 | 4.3 | 0.00 | 0.00 | 0.00 | 27 | 1014.1 |
| 20260502014516 | 69 | 360 | 0.0 | 1.7 | 0.00 | 0.00 | 0.00 | 25 | 1014.0 |
| 20260502013011 | 71 | 360 | 0.0 | 2.6 | 0.00 | 0.00 | 0.00 | 24 | 1014.1 |
| 20260502011508 | 71 | 360 | 0.0 | 1.7 | 0.00 | 0.00 | 0.00 | 24 | 1014.2 |
| 20260502010011 | 71 | 360 | 0.0 | 3.5 | 0.00 | 0.00 | 0.00 | 25 | 1014.3 |
| 20260502004506 | 70 | 360 | 1.7 | 4.3 | 0.00 | 0.00 | 0.00 | 26 | 1014.5 |
| 20260502003004 | 70 | 149 | 1.7 | 6.1 | 0.00 | 0.00 | 0.00 | 23 | 1014.7 |
| 20260502001534 | 70 | 360 | 0.0 | 5.2 | 0.00 | 0.00 | 0.00 | 24 | 1014.7 |
| 20260502000056 | 69 | 148 | 3.5 | 7.8 | 0.00 | 0.00 | 0.00 | 24 | 1014.7 |